This is the latest recevied weather packets stored in our database for station/object N4AR. If no packets are shown the sender has not sent any weather packets the latest 10 day(s).
| Time | Temp. | Humidity | Pressure | Rain* | Wind** | Luminosity | Snow |
|---|---|---|---|---|---|---|---|
| 1777639391 | 12.22° C | 62% | 1016.8 hPa | 0 mm | - | 169 W/m² | - |
| 1777639090 | 12.22° C | 61% | 1016.6 hPa | 0 mm | - | 171 W/m² | - |
| 1777638788 | 12.22° C | 64% | 1016.8 hPa | 0 mm | - | 149 W/m² | - |
| 1777638483 | 11.67° C | 66% | 1016.5 hPa | 0 mm | - | 125 W/m² | - |
| 1777638181 | 11.67° C | 68% | 1016.6 hPa | 0 mm | - | 104 W/m² | - |
| 1777637875 | 11.67° C | 68% | 1016.4 hPa | 0 mm | - | 100 W/m² | - |
| 1777637573 | 11.67° C | 69% | 1016.5 hPa | 0 mm | - | 85 W/m² | - |
| 1777637270 | 11.67° C | 69% | 1016.7 hPa | 0 mm | - | 89 W/m² | - |
| 1777636967 | 11.11° C | 69% | 1016.4 hPa | 0 mm | - | 80 W/m² | - |
| 1777636662 | 11.11° C | 70% | 1016.6 hPa | 0 mm | - | 74 W/m² | - |
| 1777636359 | 11.11° C | 69% | 1016.5 hPa | 0 mm | - | 71 W/m² | - |
| 1777636058 | 11.11° C | 70% | 1016.4 hPa | 0 mm | - | 73 W/m² | - |
| 1777635755 | 11.11° C | 70% | 1016.5 hPa | 0 mm | - | 64 W/m² | - |
| 1777635452 | 10.56° C | 70% | 1016.4 hPa | 0 mm | - | 62 W/m² | - |
| 1777635149 | 10.56° C | 72% | 1016.5 hPa | 0 mm | - | 60 W/m² | - |
| 1777634845 | 10.56° C | 71% | 1016.3 hPa | 0 mm | - | 58 W/m² | - |
| 1777634542 | 10° C | 70% | 1016.6 hPa | 0 mm | - | 55 W/m² | - |
| 1777634239 | 10° C | 71% | 1016.2 hPa | 0 mm | - | 42 W/m² | - |
| 1777633935 | 9.44° C | 72% | 1016.4 hPa | 0 mm | - | 38 W/m² | - |
| 1777633633 | 8.89° C | 77% | 1016.2 hPa | 0 mm | - | 34 W/m² | - |
| 1777633331 | 8.89° C | 77% | 1016.2 hPa | 0 mm | - | 29 W/m² | - |
| 1777633028 | 8.33° C | 77% | 1016.1 hPa | 0 mm | - | 28 W/m² | - |
| 1777632724 | 8.33° C | 76% | 1016.1 hPa | 0 mm | - | 24 W/m² | - |
| 1777632420 | 8.89° C | 75% | 1016.1 hPa | 0 mm | - | 21 W/m² | - |
| 1777632118 | 8.89° C | 75% | 1016.2 hPa | 0 mm | - | 16 W/m² | - |
* Rain latest hour (hover to see other rain measurements)
** Current wind speed in m/s (hover to see current wind gust speed)